Location: De Greiden
(52.9496°N, 5.9137°E)
Time: 02:09:32
(UTC+00:00)

CSL-04 Rocket - Pass Details

Date: 24 January 2021
Orbit: 806 x 860 km, 98.9° (Epoch: 26 February)

Event Time Altitude Azimuth Distance (km) Brightness Sun altitude
Rises 17:25:35 0° 132° (SE) 3,376 6.5 -11.7°
Reaches altitude 10° 17:28:05 10° 124° (SE) 2,454 5.7 -12.1°
Maximum altitude 17:32:58 35° 60° (ENE) 1,336 4.2 -12.8°
Drops below altitude 10° 17:37:57 10° 357° (N) 2,496 6.0 -13.5°
Sets 17:40:30 0° 349° (NNW) 3,442 6.9 -13.9°
